{"data":{"norad_id":62642,"intl_designator":"2025-009AK","name":"FLOCK 4G-29","alt_names":[],"object_type":"PAYLOAD","status":"ACTIVE","operator":null,"country":"US","launch_date":"2025-01-14","launch_site_code":"AFWTR","launch_vehicle":null,"mission":null,"orbit_class":"UNKNOWN","rcs_meters":null,"size_class":null,"mass_kg":null,"dimensions":null,"purposes":["earth_obs"],"wikipedia_slug":null,"has_3d_model":false,"image_url":null,"decayed_at":null,"tle_current":{"epoch":"2026-05-25T03:54:13.552704Z","epoch_age_seconds":61321,"freshness":"FRESH","line1":"1 62642U 25009AK  26145.16265686  .00010776  00000+0  38623-3 0  9999","line2":"2 62642  97.4021 227.2443 0003289  48.3067 311.8454 15.28903836 75383","mean_motion":15.28903836,"eccentricity":0.0003289,"inclination_deg":97.4021,"raan_deg":227.2443,"arg_perigee_deg":48.3067,"mean_anomaly_deg":311.8454,"bstar":0.00038623,"rev_number":7538,"period_min":94.185125715127,"perigee_km":476.83257410445,"apogee_km":481.34325665378,"semimajor_km":6857.2249153791,"source":"CELESTRAK","updated_at":"2026-05-25T13:38:13.339026Z"}}}